Wetterdaten: Samstag, 01.06.2013
Datum Zeit Temp. Auen Feucht Auen Luftdruck Regen Richtung Richtung Windben
01.06.2013 00:00 7,9 C 95 % 1004,3 hPa 0,0 mm W 279 0,0 km/h (0 Bft)
01.06.2013 00:05 7,9 C 95 % 1004,3 hPa 0,2 mm W 279 0,0 km/h (0 Bft)
01.06.2013 00:10 7,9 C 95 % 1004,4 hPa 0,0 mm W 279 0,0 km/h (0 Bft)
01.06.2013 00:15 7,9 C 95 % 1004,4 hPa 0,0 mm W 279 0,0 km/h (0 Bft)
01.06.2013 00:20 7,9 C 95 % 1004,4 hPa 0,0 mm W 279 0,0 km/h (0 Bft)
01.06.2013 00:25 7,9 C 95 % 1004,4 hPa 0,2 mm W 279 0,0 km/h (0 Bft)
01.06.2013 00:30 7,9 C 95 % 1004,4 hPa 0,0 mm W-NW 288 3,2 km/h (1 Bft)
01.06.2013 00:35 7,9 C 95 % 1004,5 hPa 0,0 mm W-NW 288 1,6 km/h (1 Bft)
01.06.2013 00:40 7,9 C 95 % 1004,5 hPa 0,0 mm W-NW 288 1,6 km/h (1 Bft)
01.06.2013 00:45 7,9 C 95 % 1004,5 hPa 0,0 mm W-NW 288 0,0 km/h (0 Bft)
01.06.2013 00:50 7,9 C 95 % 1004,6 hPa 0,0 mm W-NW 288 0,0 km/h (0 Bft)
01.06.2013 00:55 7,9 C 95 % 1004,6 hPa 0,2 mm W-NW 288 0,0 km/h (0 Bft)
01.06.2013 01:00 7,9 C 95 % 1004,7 hPa 0,0 mm W-NW 288 0,0 km/h (0 Bft)
01.06.2013 01:05 7,9 C 95 % 1004,7 hPa 0,0 mm W-NW 288 0,0 km/h (0 Bft)
01.06.2013 01:10 7,9 C 95 % 1004,6 hPa 0,0 mm W-NW 288 1,6 km/h (1 Bft)
01.06.2013 01:15 7,9 C 95 % 1004,5 hPa 0,0 mm W-NW 288 3,2 km/h (1 Bft)
01.06.2013 01:20 7,9 C 95 % 1004,5 hPa 0,0 mm W-NW 292 4,8 km/h (1 Bft)
01.06.2013 01:25 7,9 C 95 % 1004,7 hPa 0,0 mm W-NW 292 3,2 km/h (1 Bft)
01.06.2013 01:30 7,9 C 95 % 1004,7 hPa 0,0 mm W-NW 284 0,0 km/h (0 Bft)
01.06.2013 01:35 7,9 C 95 % 1004,8 hPa 0,0 mm W-NW 284 1,6 km/h (1 Bft)
01.06.2013 01:40 8,0 C 95 % 1005,0 hPa 0,0 mm W-NW 284 1,6 km/h (1 Bft)
01.06.2013 01:45 8,0 C 95 % 1005,2 hPa 0,0 mm W-NW 284 0,0 km/h (0 Bft)
01.06.2013 01:50 8,0 C 95 % 1005,3 hPa 0,0 mm W-NW 284 1,6 km/h (1 Bft)
01.06.2013 01:55 8,0 C 95 % 1005,4 hPa 0,0 mm W-NW 284 0,0 km/h (0 Bft)
01.06.2013 02:00 8,0 C 95 % 1005,4 hPa 0,0 mm W-NW 284 0,0 km/h (0 Bft)
01.06.2013 02:05 8,1 C 95 % 1005,5 hPa 0,0 mm W-NW 284 0,0 km/h (0 Bft)
01.06.2013 02:10 8,1 C 95 % 1005,6 hPa 0,0 mm W-NW 284 0,0 km/h (0 Bft)
01.06.2013 02:15 8,1 C 95 % 1005,6 hPa 0,0 mm W-NW 284 0,0 km/h (0 Bft)
01.06.2013 02:20 8,1 C 95 % 1005,8 hPa 0,0 mm W-NW 285 0,0 km/h (0 Bft)
01.06.2013 02:25 8,1 C 96 % 1005,8 hPa 0,0 mm W-NW 284 3,2 km/h (1 Bft)
01.06.2013 02:30 8,1 C 96 % 1005,9 hPa 0,0 mm W 266 3,2 km/h (1 Bft)
01.06.2013 02:35 8,1 C 96 % 1005,9 hPa 0,0 mm W 271 3,2 km/h (1 Bft)
01.06.2013 02:40 8,1 C 96 % 1005,8 hPa 0,0 mm W 273 3,2 km/h (1 Bft)
01.06.2013 02:45 8,2 C 96 % 1005,9 hPa 0,0 mm W 273 1,6 km/h (1 Bft)
01.06.2013 02:50 8,2 C 96 % 1006,0 hPa 0,0 mm W 273 0,0 km/h (0 Bft)
01.06.2013 02:55 8,2 C 96 % 1006,0 hPa 0,0 mm W 263 0,0 km/h (0 Bft)
01.06.2013 03:00 8,2 C 96 % 1006,0 hPa 0,0 mm W 263 0,0 km/h (0 Bft)
01.06.2013 03:05 8,2 C 96 % 1006,1 hPa 0,0 mm W 263 0,0 km/h (0 Bft)
01.06.2013 03:10 8,2 C 96 % 1006,1 hPa 0,0 mm W 263 0,0 km/h (0 Bft)
01.06.2013 03:15 8,2 C 96 % 1006,1 hPa 0,0 mm W 263 0,0 km/h (0 Bft)
01.06.2013 03:20 8,2 C 96 % 1006,2 hPa 0,0 mm W 263 0,0 km/h (0 Bft)
01.06.2013 03:25 8,2 C 96 % 1006,2 hPa 0,0 mm W 263 3,2 km/h (1 Bft)
01.06.2013 03:30 8,2 C 96 % 1006,1 hPa 0,0 mm W 264 3,2 km/h (1 Bft)
01.06.2013 03:35 8,2 C 96 % 1006,2 hPa 0,0 mm W 264 3,2 km/h (1 Bft)
01.06.2013 03:40 8,2 C 96 % 1006,3 hPa 0,0 mm W 263 4,8 km/h (1 Bft)
01.06.2013 03:45 8,2 C 96 % 1006,4 hPa 0,0 mm W 263 4,8 km/h (1 Bft)
01.06.2013 03:50 8,2 C 96 % 1006,4 hPa 0,0 mm W 260 3,2 km/h (1 Bft)
01.06.2013 03:55 8,2 C 96 % 1006,5 hPa 0,0 mm W-SW 255 4,8 km/h (1 Bft)
01.06.2013 04:00 8,2 C 96 % 1006,5 hPa 0,0 mm W 270 4,8 km/h (1 Bft)
01.06.2013 04:05 8,2 C 96 % 1006,6 hPa 0,0 mm W-SW 258 4,8 km/h (1 Bft)
01.06.2013 04:10 8,2 C 96 % 1006,7 hPa 0,0 mm W 265 4,8 km/h (1 Bft)
01.06.2013 04:15 8,2 C 96 % 1006,7 hPa 0,0 mm W 263 3,2 km/h (1 Bft)
01.06.2013 04:20 8,2 C 96 % 1006,7 hPa 0,0 mm W 263 3,2 km/h (1 Bft)
01.06.2013 04:25 8,2 C 96 % 1006,8 hPa 0,0 mm W 264 3,2 km/h (1 Bft)
01.06.2013 04:30 8,2 C 96 % 1006,8 hPa 0,0 mm W 264 1,6 km/h (1 Bft)
01.06.2013 04:35 8,3 C 96 % 1006,9 hPa 0,0 mm W 264 4,8 km/h (1 Bft)
01.06.2013 04:40 8,3 C 96 % 1006,9 hPa 0,0 mm W 266 4,8 km/h (1 Bft)
01.06.2013 04:45 8,3 C 96 % 1007,0 hPa 0,0 mm W 270 3,2 km/h (1 Bft)
01.06.2013 04:50 8,3 C 96 % 1007,0 hPa 0,0 mm W 270 0,0 km/h (0 Bft)
01.06.2013 04:55 8,3 C 96 % 1007,1 hPa 0,0 mm W 266 3,2 km/h (1 Bft)
01.06.2013 05:00 8,3 C 96 % 1007,2 hPa 0,0 mm W 266 3,2 km/h (1 Bft)
01.06.2013 05:05 8,3 C 96 % 1007,3 hPa 0,0 mm W 266 1,6 km/h (1 Bft)
01.06.2013 05:10 8,3 C 96 % 1007,3 hPa 0,0 mm W 266 3,2 km/h (1 Bft)
01.06.2013 05:15 8,3 C 96 % 1007,4 hPa 0,0 mm W 266 3,2 km/h (1 Bft)
01.06.2013 05:20 8,3 C 96 % 1007,5 hPa 0,0 mm W 266 1,6 km/h (1 Bft)
01.06.2013 05:25 8,3 C 96 % 1007,5 hPa 0,0 mm W 266 0,0 km/h (0 Bft)
01.06.2013 05:30 8,3 C 96 % 1007,6 hPa 0,0 mm W 266 1,6 km/h (1 Bft)
01.06.2013 05:35 8,3 C 96 % 1007,6 hPa 0,0 mm W 266 0,0 km/h (0 Bft)
01.06.2013 05:40 8,3 C 96 % 1007,6 hPa 0,0 mm W 266 0,0 km/h (0 Bft)
01.06.2013 05:45 8,3 C 96 % 1007,6 hPa 0,0 mm W 266 0,0 km/h (0 Bft)
01.06.2013 05:50 8,3 C 96 % 1007,6 hPa 0,0 mm W 266 1,6 km/h (1 Bft)
01.06.2013 05:55 8,3 C 96 % 1007,6 hPa 0,0 mm W 266 0,0 km/h (0 Bft)
01.06.2013 06:00 8,3 C 96 % 1007,6 hPa 0,0 mm W 266 0,0 km/h (0 Bft)
01.06.2013 06:05 8,3 C 96 % 1007,8 hPa 0,0 mm W 266 0,0 km/h (0 Bft)
01.06.2013 06:10 8,3 C 96 % 1007,8 hPa 0,2 mm W 266 0,0 km/h (0 Bft)
01.06.2013 06:15 8,4 C 96 % 1008,0 hPa 0,0 mm W 266 0,0 km/h (0 Bft)
01.06.2013 06:20 8,4 C 96 % 1008,0 hPa 0,0 mm W 266 0,0 km/h (0 Bft)
01.06.2013 06:25 8,4 C 96 % 1008,1 hPa 0,0 mm W 266 0,0 km/h (0 Bft)
01.06.2013 06:30 8,4 C 96 % 1008,2 hPa 0,0 mm W-SW 257 0,0 km/h (0 Bft)
01.06.2013 06:35 8,5 C 96 % 1008,2 hPa 0,0 mm W-SW 257 1,6 km/h (1 Bft)
01.06.2013 06:40 8,5 C 96 % 1008,2 hPa 0,0 mm W-SW 257 0,0 km/h (0 Bft)
01.06.2013 06:45 8,6 C 96 % 1008,3 hPa 0,0 mm W-SW 257 0,0 km/h (0 Bft)
01.06.2013 06:50 8,6 C 96 % 1008,2 hPa 0,0 mm W-SW 257 0,0 km/h (0 Bft)
01.06.2013 06:55 8,8 C 96 % 1008,3 hPa 0,0 mm W-SW 257 0,0 km/h (0 Bft)
01.06.2013 07:00 9,0 C 96 % 1008,4 hPa 0,0 mm W 271 3,2 km/h (1 Bft)
01.06.2013 07:05 9,1 C 96 % 1008,4 hPa 0,0 mm W-NW 284 6,4 km/h (2 Bft)
01.06.2013 07:10 9,1 C 96 % 1008,4 hPa 0,0 mm W 273 4,8 km/h (1 Bft)
01.06.2013 07:15 9,1 C 96 % 1008,5 hPa 0,0 mm W 273 3,2 km/h (1 Bft)
01.06.2013 07:20 9,2 C 96 % 1008,6 hPa 0,0 mm W 273 1,6 km/h (1 Bft)
01.06.2013 07:25 9,3 C 96 % 1008,6 hPa 0,0 mm W 269 4,8 km/h (1 Bft)
01.06.2013 07:30 9,3 C 96 % 1008,7 hPa 0,0 mm W 272 4,8 km/h (1 Bft)
01.06.2013 07:35 9,2 C 96 % 1008,7 hPa 0,0 mm W 266 4,8 km/h (1 Bft)
01.06.2013 07:40 9,3 C 95 % 1008,7 hPa 0,0 mm W 275 3,2 km/h (1 Bft)
01.06.2013 07:45 9,4 C 95 % 1008,7 hPa 0,0 mm W 273 4,8 km/h (1 Bft)
01.06.2013 07:50 9,5 C 95 % 1008,9 hPa 0,0 mm W 273 1,6 km/h (1 Bft)
01.06.2013 07:55 9,5 C 95 % 1008,9 hPa 0,0 mm W 273 1,6 km/h (1 Bft)
01.06.2013 08:00 9,5 C 95 % 1008,9 hPa 0,0 mm W 275 4,8 km/h (1 Bft)
01.06.2013 08:05 9,4 C 95 % 1008,9 hPa 0,0 mm W 261 9,7 km/h (2 Bft)
01.06.2013 08:10 9,6 C 94 % 1008,8 hPa 0,0 mm W 273 11,3 km/h (2 Bft)
01.06.2013 08:15 9,7 C 94 % 1008,8 hPa 0,0 mm W 265 11,3 km/h (2 Bft)
01.06.2013 08:20 9,7 C 94 % 1009,0 hPa 0,0 mm W-SW 258 9,7 km/h (2 Bft)
01.06.2013 08:25 9,8 C 94 % 1009,0 hPa 0,0 mm W 277 9,7 km/h (2 Bft)
01.06.2013 08:30 9,7 C 94 % 1008,9 hPa 0,0 mm W 267 8,0 km/h (2 Bft)
01.06.2013 08:35 9,7 C 94 % 1008,9 hPa 0,0 mm W-SW 257 9,7 km/h (2 Bft)
01.06.2013 08:40 9,8 C 94 % 1008,9 hPa 0,0 mm W 263 9,7 km/h (2 Bft)
01.06.2013 08:45 10,0 C 94 % 1008,8 hPa 0,0 mm W 281 8,0 km/h (2 Bft)
01.06.2013 08:50 10,1 C 93 % 1008,9 hPa 0,0 mm W 269 11,3 km/h (2 Bft)
01.06.2013 08:55 10,4 C 93 % 1009,0 hPa 0,0 mm W 273 8,0 km/h (2 Bft)
01.06.2013 09:00 10,6 C 93 % 1009,0 hPa 0,0 mm W 261 8,0 km/h (2 Bft)
01.06.2013 09:05 10,7 C 92 % 1009,0 hPa 0,0 mm W-NW 284 8,0 km/h (2 Bft)
01.06.2013 09:10 10,6 C 91 % 1009,1 hPa 0,0 mm W-SW 255 14,5 km/h (3 Bft)
01.06.2013 09:15 10,7 C 91 % 1009,1 hPa 0,0 mm W 281 14,5 km/h (3 Bft)
01.06.2013 09:20 10,7 C 91 % 1009,0 hPa 0,0 mm W 272 14,5 km/h (3 Bft)
01.06.2013 09:25 10,8 C 91 % 1009,0 hPa 0,0 mm W 278 9,7 km/h (2 Bft)
01.06.2013 09:30 10,8 C 90 % 1009,1 hPa 0,0 mm W-SW 257 12,9 km/h (3 Bft)
01.06.2013 09:35 10,8 C 90 % 1009,2 hPa 0,0 mm W-SW 250 9,7 km/h (2 Bft)
01.06.2013 09:40 10,8 C 90 % 1009,3 hPa 0,0 mm W 278 11,3 km/h (2 Bft)
01.06.2013 09:45 10,9 C 91 % 1009,3 hPa 0,0 mm W-NW 301 8,0 km/h (2 Bft)
01.06.2013 09:50 11,2 C 91 % 1009,3 hPa 0,0 mm W 265 9,7 km/h (2 Bft)
01.06.2013 09:55 11,6 C 90 % 1009,2 hPa 0,0 mm W 275 8,0 km/h (2 Bft)
01.06.2013 10:00 11,8 C 90 % 1009,2 hPa 0,0 mm W 270 11,3 km/h (2 Bft)
01.06.2013 10:05 11,9 C 89 % 1009,2 hPa 0,0 mm W 271 11,3 km/h (2 Bft)
01.06.2013 10:10 11,8 C 88 % 1009,4 hPa 0,0 mm W 267 9,7 km/h (2 Bft)
01.06.2013 10:15 11,9 C 88 % 1009,4 hPa 0,0 mm W 266 11,3 km/h (2 Bft)
01.06.2013 10:20 11,9 C 86 % 1009,5 hPa 0,0 mm W 278 12,9 km/h (3 Bft)
01.06.2013 10:25 11,9 C 87 % 1009,5 hPa 0,0 mm W 278 9,7 km/h (2 Bft)
01.06.2013 10:30 11,8 C 87 % 1009,5 hPa 0,0 mm W 259 9,7 km/h (2 Bft)
01.06.2013 10:35 11,7 C 87 % 1009,5 hPa 0,0 mm W 265 16,1 km/h (3 Bft)
01.06.2013 10:40 11,8 C 88 % 1009,5 hPa 0,0 mm W 275 11,3 km/h (2 Bft)
01.06.2013 10:45 11,9 C 88 % 1009,5 hPa 0,0 mm W-NW 290 11,3 km/h (2 Bft)
01.06.2013 10:50 11,9 C 88 % 1009,6 hPa 0,0 mm SW 236 14,5 km/h (3 Bft)
01.06.2013 10:55 11,8 C 88 % 1009,6 hPa 0,0 mm W-NW 282 11,3 km/h (2 Bft)
01.06.2013 11:00 11,7 C 87 % 1009,6 hPa 0,0 mm W 266 11,3 km/h (2 Bft)
01.06.2013 11:05 11,7 C 88 % 1009,6 hPa 0,0 mm W 275 9,7 km/h (2 Bft)
01.06.2013 11:10 11,7 C 88 % 1009,7 hPa 0,0 mm SW 236 14,5 km/h (3 Bft)
01.06.2013 11:15 11,7 C 88 % 1009,7 hPa 0,0 mm W-NW 283 9,7 km/h (2 Bft)
01.06.2013 11:20 11,8 C 88 % 1009,7 hPa 0,0 mm W 267 9,7 km/h (2 Bft)
01.06.2013 11:25 11,9 C 88 % 1009,7 hPa 0,0 mm W-SW 241 12,9 km/h (3 Bft)
01.06.2013 11:30 12,2 C 88 % 1009,7 hPa 0,0 mm W-NW 298 14,5 km/h (3 Bft)
01.06.2013 11:35 12,2 C 87 % 1009,7 hPa 0,0 mm W 263 11,3 km/h (2 Bft)
01.06.2013 11:40 12,2 C 87 % 1009,7 hPa 0,0 mm W 278 12,9 km/h (3 Bft)
01.06.2013 11:45 12,3 C 87 % 1009,8 hPa 0,0 mm W 277 12,9 km/h (3 Bft)
01.06.2013 11:50 12,5 C 87 % 1009,8 hPa 0,0 mm W 268 9,7 km/h (2 Bft)
01.06.2013 11:55 12,6 C 86 % 1010,0 hPa 0,0 mm W-SW 252 12,9 km/h (3 Bft)
01.06.2013 12:00 12,7 C 86 % 1010,1 hPa 0,0 mm W 265 14,5 km/h (3 Bft)
01.06.2013 12:05 12,6 C 86 % 1010,2 hPa 0,0 mm W 267 16,1 km/h (3 Bft)
01.06.2013 12:10 12,5 C 88 % 1010,1 hPa 0,0 mm W 271 14,5 km/h (3 Bft)
01.06.2013 12:15 12,3 C 87 % 1010,1 hPa 0,0 mm W 265 14,5 km/h (3 Bft)
01.06.2013 12:20 12,2 C 88 % 1010,2 hPa 0,0 mm W 261 12,9 km/h (3 Bft)
01.06.2013 12:25 12,1 C 88 % 1010,1 hPa 0,2 mm SW 232 12,9 km/h (3 Bft)
01.06.2013 12:30 11,9 C 89 % 1010,1 hPa 0,0 mm W 269 12,9 km/h (3 Bft)
01.06.2013 12:35 11,9 C 90 % 1010,1 hPa 0,0 mm W 276 9,7 km/h (2 Bft)
01.06.2013 12:40 11,8 C 90 % 1010,1 hPa 0,0 mm W-NW 285 9,7 km/h (2 Bft)
01.06.2013 12:45 11,9 C 91 % 1010,1 hPa 0,2 mm W 272 8,0 km/h (2 Bft)
01.06.2013 12:50 12,0 C 91 % 1010,1 hPa 0,0 mm W 265 8,0 km/h (2 Bft)
01.06.2013 12:55 12,1 C 91 % 1010,1 hPa 0,0 mm W 279 6,4 km/h (2 Bft)
01.06.2013 13:00 12,2 C 91 % 1010,1 hPa 0,0 mm W 263 9,7 km/h (2 Bft)
01.06.2013 13:05 12,2 C 90 % 1010,0 hPa 0,0 mm W-SW 252 12,9 km/h (3 Bft)
01.06.2013 13:10 12,1 C 90 % 1010,0 hPa 0,0 mm W-SW 254 12,9 km/h (3 Bft)
01.06.2013 13:15 12,1 C 90 % 1010,0 hPa 0,0 mm W 268 12,9 km/h (3 Bft)
01.06.2013 13:20 12,2 C 90 % 1010,0 hPa 0,0 mm W 259 11,3 km/h (2 Bft)
01.06.2013 13:25 12,1 C 88 % 1009,9 hPa 0,0 mm W 267 14,5 km/h (3 Bft)
01.06.2013 13:30 12,1 C 88 % 1010,0 hPa 0,2 mm W 271 12,9 km/h (3 Bft)
01.06.2013 13:35 12,3 C 90 % 1009,9 hPa 0,0 mm W 276 8,0 km/h (2 Bft)
01.06.2013 13:40 12,3 C 89 % 1009,9 hPa 0,0 mm W 271 11,3 km/h (2 Bft)
01.06.2013 13:45 12,4 C 88 % 1009,9 hPa 0,0 mm W 275 8,0 km/h (2 Bft)
01.06.2013 13:50 12,6 C 89 % 1009,9 hPa 0,0 mm W 260 8,0 km/h (2 Bft)
01.06.2013 13:55 12,4 C 87 % 1009,9 hPa 0,0 mm W 273 9,7 km/h (2 Bft)
01.06.2013 14:00 12,6 C 89 % 1009,8 hPa 0,0 mm W 279 4,8 km/h (1 Bft)
01.06.2013 14:05 12,6 C 87 % 1009,8 hPa 0,0 mm W 268 9,7 km/h (2 Bft)
01.06.2013 14:10 12,5 C 88 % 1009,7 hPa 0,0 mm W 281 6,4 km/h (2 Bft)
01.06.2013 14:15 12,3 C 86 % 1009,6 hPa 0,0 mm W 274 8,0 km/h (2 Bft)
01.06.2013 14:20 12,4 C 86 % 1009,6 hPa 0,0 mm W 267 9,7 km/h (2 Bft)
01.06.2013 14:25 12,6 C 86 % 1009,4 hPa 0,0 mm W 276 8,0 km/h (2 Bft)
01.06.2013 14:30 12,9 C 85 % 1009,4 hPa 0,0 mm W 275 6,4 km/h (2 Bft)
01.06.2013 14:35 13,3 C 85 % 1009,3 hPa 0,0 mm W 273 8,0 km/h (2 Bft)
01.06.2013 14:40 13,6 C 82 % 1009,3 hPa 0,0 mm W 265 6,4 km/h (2 Bft)
01.06.2013 14:45 13,7 C 81 % 1009,2 hPa 0,0 mm W 274 9,7 km/h (2 Bft)
01.06.2013 14:50 13,4 C 81 % 1009,1 hPa 0,0 mm N-NW 337 8,0 km/h (2 Bft)
01.06.2013 14:55 13,5 C 84 % 1009,0 hPa 0,0 mm W 265 9,7 km/h (2 Bft)
01.06.2013 15:00 13,5 C 84 % 1009,0 hPa 0,0 mm W 260 12,9 km/h (3 Bft)
01.06.2013 15:05 13,4 C 84 % 1009,0 hPa 0,0 mm W-NW 290 11,3 km/h (2 Bft)
01.06.2013 15:10 13,4 C 84 % 1008,9 hPa 0,0 mm W-SW 247 11,3 km/h (2 Bft)
01.06.2013 15:15 13,4 C 84 % 1008,9 hPa 0,0 mm W 275 9,7 km/h (2 Bft)
01.06.2013 15:20 13,3 C 83 % 1008,9 hPa 0,0 mm W 267 8,0 km/h (2 Bft)
01.06.2013 15:25 13,2 C 84 % 1008,8 hPa 0,0 mm W-SW 250 8,0 km/h (2 Bft)
01.06.2013 15:30 13,1 C 84 % 1008,8 hPa 0,0 mm W 263 9,7 km/h (2 Bft)
01.06.2013 15:35 12,8 C 86 % 1008,9 hPa 0,0 mm W 261 8,0 km/h (2 Bft)
01.06.2013 15:40 12,4 C 86 % 1009,0 hPa 0,0 mm W 273 12,9 km/h (3 Bft)
01.06.2013 15:45 12,1 C 86 % 1008,9 hPa 0,0 mm W-NW 297 12,9 km/h (3 Bft)
01.06.2013 15:50 11,9 C 87 % 1008,9 hPa 0,0 mm W 267 8,0 km/h (2 Bft)
01.06.2013 15:55 11,9 C 88 % 1008,8 hPa 0,0 mm W 275 8,0 km/h (2 Bft)
01.06.2013 16:00 11,8 C 88 % 1008,8 hPa 0,0 mm W 278 6,4 km/h (2 Bft)
01.06.2013 16:05 11,8 C 88 % 1008,8 hPa 0,0 mm W 270 8,0 km/h (2 Bft)
01.06.2013 16:10 11,7 C 88 % 1008,8 hPa 0,2 mm W 271 9,7 km/h (2 Bft)
01.06.2013 16:15 11,6 C 88 % 1008,8 hPa 0,0 mm W-NW 302 11,3 km/h (2 Bft)
01.06.2013 16:20 11,6 C 89 % 1008,8 hPa 0,0 mm W 277 9,7 km/h (2 Bft)
01.06.2013 16:25 11,6 C 89 % 1008,7 hPa 0,2 mm W-SW 251 6,4 km/h (2 Bft)
01.06.2013 16:30 11,5 C 89 % 1008,7 hPa 0,0 mm W 279 9,7 km/h (2 Bft)
01.06.2013 16:35 11,4 C 89 % 1008,7 hPa 0,0 mm W 276 9,7 km/h (2 Bft)
01.06.2013 16:40 11,4 C 90 % 1008,7 hPa 0,2 mm W 272 6,4 km/h (2 Bft)
01.06.2013 16:45 11,5 C 90 % 1008,7 hPa 0,0 mm W-NW 288 8,0 km/h (2 Bft)
01.06.2013 16:50 11,6 C 90 % 1008,7 hPa 0,0 mm W 267 8,0 km/h (2 Bft)
01.06.2013 16:55 11,6 C 90 % 1008,7 hPa 0,0 mm W 267 9,7 km/h (2 Bft)
01.06.2013 17:00 11,6 C 90 % 1008,6 hPa 0,2 mm W 260 8,0 km/h (2 Bft)
01.06.2013 17:05 11,5 C 90 % 1008,6 hPa 0,0 mm W 266 9,7 km/h (2 Bft)
01.06.2013 17:10 11,4 C 89 % 1008,6 hPa 0,0 mm W 263 8,0 km/h (2 Bft)
01.06.2013 17:15 11,3 C 90 % 1008,7 hPa 0,2 mm W-SW 252 11,3 km/h (2 Bft)
01.06.2013 17:20 11,2 C 90 % 1008,8 hPa 0,0 mm W 279 8,0 km/h (2 Bft)
01.06.2013 17:25 11,1 C 90 % 1008,7 hPa 0,2 mm W 272 8,0 km/h (2 Bft)
01.06.2013 17:30 11,0 C 91 % 1008,7 hPa 0,0 mm W 262 8,0 km/h (2 Bft)
01.06.2013 17:35 10,9 C 91 % 1008,8 hPa 0,4 mm W 268 9,7 km/h (2 Bft)
01.06.2013 17:40 10,8 C 91 % 1008,8 hPa 0,2 mm W-SW 248 6,4 km/h (2 Bft)
01.06.2013 17:45 10,8 C 91 % 1008,8 hPa 0,2 mm W 281 6,4 km/h (2 Bft)
01.06.2013 17:50 10,7 C 91 % 1008,8 hPa 0,2 mm W-SW 252 6,4 km/h (2 Bft)
01.06.2013 17:55 10,7 C 92 % 1008,7 hPa 0,2 mm W 281 6,4 km/h (2 Bft)
01.06.2013 18:00 10,7 C 92 % 1008,7 hPa 0,4 mm W 280 4,8 km/h (1 Bft)
01.06.2013 18:05 10,7 C 93 % 1008,7 hPa 0,2 mm W 263 6,4 km/h (2 Bft)
01.06.2013 18:10 10,7 C 93 % 1008,7 hPa 0,2 mm W 263 4,8 km/h (1 Bft)
01.06.2013 18:15 10,7 C 93 % 1008,6 hPa 0,0 mm W 273 6,4 km/h (2 Bft)
01.06.2013 18:20 10,6 C 93 % 1008,6 hPa 0,2 mm W 281 4,8 km/h (1 Bft)
01.06.2013 18:25 10,6 C 93 % 1008,5 hPa 0,2 mm W 268 4,8 km/h (1 Bft)
01.06.2013 18:30 10,5 C 93 % 1008,4 hPa 0,2 mm W 261 8,0 km/h (2 Bft)
01.06.2013 18:35 10,4 C 93 % 1008,3 hPa 0,2 mm W 261 8,0 km/h (2 Bft)
01.06.2013 18:40 10,3 C 93 % 1008,4 hPa 0,4 mm W 281 6,4 km/h (2 Bft)
01.06.2013 18:45 10,3 C 93 % 1008,4 hPa 0,2 mm W 275 3,2 km/h (1 Bft)
01.06.2013 18:50 10,3 C 93 % 1008,3 hPa 0,2 mm W 259 6,4 km/h (2 Bft)
01.06.2013 18:55 10,2 C 93 % 1008,4 hPa 0,2 mm W-SW 254 6,4 km/h (2 Bft)
01.06.2013 19:00 10,2 C 93 % 1008,3 hPa 0,2 mm W-SW 253 4,8 km/h (1 Bft)
01.06.2013 19:05 10,1 C 93 % 1008,3 hPa 0,2 mm W-SW 253 4,8 km/h (1 Bft)
01.06.2013 19:10 10,0 C 93 % 1008,3 hPa 0,4 mm W-SW 253 4,8 km/h (1 Bft)
01.06.2013 19:15 9,9 C 93 % 1008,3 hPa 0,4 mm W-SW 258 4,8 km/h (1 Bft)
01.06.2013 19:20 9,8 C 93 % 1008,3 hPa 0,4 mm W 265 8,0 km/h (2 Bft)
01.06.2013 19:25 9,8 C 93 % 1008,3 hPa 0,4 mm W 268 6,4 km/h (2 Bft)
01.06.2013 19:30 9,8 C 93 % 1008,3 hPa 0,4 mm W 268 3,2 km/h (1 Bft)
01.06.2013 19:35 9,7 C 93 % 1008,3 hPa 0,4 mm W 268 3,2 km/h (1 Bft)
01.06.2013 19:40 9,7 C 93 % 1008,4 hPa 0,6 mm W 268 3,2 km/h (1 Bft)
01.06.2013 19:45 9,7 C 93 % 1008,3 hPa 0,8 mm W 263 6,4 km/h (2 Bft)
01.06.2013 19:50 9,7 C 93 % 1008,2 hPa 0,6 mm W 262 8,0 km/h (2 Bft)
01.06.2013 19:55 9,7 C 93 % 1008,2 hPa 0,2 mm W 263 6,4 km/h (2 Bft)
01.06.2013 20:00 9,7 C 93 % 1008,2 hPa 0,0 mm W 273 6,4 km/h (2 Bft)
01.06.2013 20:05 9,7 C 94 % 1008,1 hPa 0,0 mm W 266 3,2 km/h (1 Bft)
01.06.2013 20:10 9,7 C 94 % 1008,0 hPa 0,0 mm W 266 3,2 km/h (1 Bft)
01.06.2013 20:15 9,7 C 94 % 1007,9 hPa 0,2 mm W 266 1,6 km/h (1 Bft)
01.06.2013 20:20 9,7 C 94 % 1007,9 hPa 0,4 mm W 266 1,6 km/h (1 Bft)
01.06.2013 20:25 9,7 C 94 % 1007,9 hPa 0,2 mm W 266 0,0 km/h (0 Bft)
01.06.2013 20:30 9,6 C 94 % 1007,9 hPa 0,4 mm W 266 1,6 km/h (1 Bft)
01.06.2013 20:35 9,6 C 94 % 1007,9 hPa 0,6 mm W 269 1,6 km/h (1 Bft)
01.06.2013 20:40 9,6 C 94 % 1008,0 hPa 0,8 mm W 269 3,2 km/h (1 Bft)
01.06.2013 20:45 9,6 C 94 % 1008,1 hPa 1,0 mm W-SW 252 3,2 km/h (1 Bft)
01.06.2013 20:50 9,6 C 94 % 1008,0 hPa 1,0 mm O-NO 57 4,8 km/h (1 Bft)
01.06.2013 20:55 9,6 C 94 % 1008,0 hPa 0,8 mm NW 310 3,2 km/h (1 Bft)
01.06.2013 21:00 9,5 C 94 % 1007,9 hPa 0,8 mm W-SW 257 3,2 km/h (1 Bft)
01.06.2013 21:05 9,5 C 94 % 1007,9 hPa 0,6 mm W-NW 303 4,8 km/h (1 Bft)
01.06.2013 21:10 9,5 C 94 % 1007,8 hPa 0,8 mm N 360 3,2 km/h (1 Bft)
01.06.2013 21:15 9,5 C 94 % 1008,1 hPa 0,8 mm SW 223 6,4 km/h (2 Bft)
01.06.2013 21:20 9,5 C 94 % 1008,0 hPa 1,4 mm S 178 6,4 km/h (2 Bft)
01.06.2013 21:25 9,5 C 94 % 1008,1 hPa 1,0 mm W 275 3,2 km/h (1 Bft)
01.06.2013 21:30 9,5 C 94 % 1008,1 hPa 1,0 mm W 264 3,2 km/h (1 Bft)
01.06.2013 21:35 9,5 C 94 % 1008,0 hPa 0,8 mm W 279 6,4 km/h (2 Bft)
01.06.2013 21:40 9,5 C 94 % 1007,9 hPa 0,8 mm W 279 6,4 km/h (2 Bft)
01.06.2013 21:45 9,5 C 94 % 1008,0 hPa 0,6 mm W 266 4,8 km/h (1 Bft)
01.06.2013 21:50 9,5 C 95 % 1008,1 hPa 0,6 mm W 260 6,4 km/h (2 Bft)
01.06.2013 21:55 9,5 C 95 % 1008,0 hPa 0,6 mm W 265 6,4 km/h (2 Bft)
01.06.2013 22:00 9,5 C 95 % 1008,0 hPa 0,8 mm W 265 1,6 km/h (1 Bft)
01.06.2013 22:05 9,5 C 95 % 1008,0 hPa 0,6 mm W 265 1,6 km/h (1 Bft)
01.06.2013 22:10 9,5 C 95 % 1008,0 hPa 0,6 mm W 261 4,8 km/h (1 Bft)
01.06.2013 22:15 9,6 C 95 % 1008,0 hPa 0,8 mm W-NW 296 4,8 km/h (1 Bft)
01.06.2013 22:20 9,6 C 95 % 1008,0 hPa 0,8 mm W 276 3,2 km/h (1 Bft)
01.06.2013 22:25 9,6 C 95 % 1008,0 hPa 0,8 mm W-NW 285 3,2 km/h (1 Bft)
01.06.2013 22:30 9,6 C 95 % 1007,9 hPa 0,6 mm W-NW 285 3,2 km/h (1 Bft)
01.06.2013 22:35 9,6 C 95 % 1007,9 hPa 0,6 mm W 271 1,6 km/h (1 Bft)
01.06.2013 22:40 9,7 C 95 % 1007,8 hPa 1,0 mm W 279 8,0 km/h (2 Bft)
01.06.2013 22:45 9,8 C 95 % 1007,7 hPa 0,6 mm W 269 8,0 km/h (2 Bft)
01.06.2013 22:50 9,9 C 95 % 1007,7 hPa 0,8 mm W 269 3,2 km/h (1 Bft)
01.06.2013 22:55 10,0 C 95 % 1007,7 hPa 0,8 mm W 269 3,2 km/h (1 Bft)
01.06.2013 23:00 10,1 C 95 % 1007,7 hPa 0,8 mm W-SW 257 9,7 km/h (2 Bft)
01.06.2013 23:05 10,2 C 96 % 1007,8 hPa 0,8 mm W 279 4,8 km/h (1 Bft)
01.06.2013 23:10 10,3 C 96 % 1007,8 hPa 0,4 mm W-SW 258 4,8 km/h (1 Bft)
01.06.2013 23:15 10,5 C 96 % 1007,8 hPa 0,6 mm W-SW 255 14,5 km/h (3 Bft)
01.06.2013 23:20 10,7 C 96 % 1007,8 hPa 0,4 mm W 275 17,7 km/h (3 Bft)
01.06.2013 23:25 10,9 C 96 % 1007,8 hPa 0,4 mm NW 307 16,1 km/h (3 Bft)
01.06.2013 23:30 11,1 C 96 % 1007,6 hPa 0,4 mm W 259 22,5 km/h (4 Bft)
01.06.2013 23:35 11,2 C 96 % 1007,6 hPa 0,6 mm W 279 22,5 km/h (4 Bft)
01.06.2013 23:40 11,3 C 96 % 1007,5 hPa 0,8 mm W 274 20,9 km/h (4 Bft)
01.06.2013 23:45 11,4 C 96 % 1007,5 hPa 0,6 mm W 261 22,5 km/h (4 Bft)
01.06.2013 23:50 11,4 C 96 % 1007,7 hPa 1,0 mm W 272 30,6 km/h (5 Bft)
01.06.2013 23:55 11,5 C 96 % 1007,7 hPa 0,8 mm W-NW 282 24,1 km/h (4 Bft)
_ Min-Zeit 00:05 14:45 00:00 - - - 00:00
Minimum _ 7,8 C 81 % 1004,3 hPa - - - 0,0 km/h (0 Bft)
_ Max-Zeit 14:45 02:25 12:05 21:20 - - 23:50
Maximum _ 13,8 C 96 % 1010,2 hPa 1,4 mm - - 30,6 km/h
W-SW (5 Bft)
Durchschnitt _ 10,2 C 92 % 1008,1 hPa #43,0 mm W - 6,5 km/h (2 Bft)